[[{"header":{"parameterUnit":"m.s-1","parameterCategory":1,"la1":30.2992,"la2":30.254,"lo1":-89.0895,"lo2":-89.0443,"dy":0.0025,"dx":0.0025,"nx":19,"ny":19,"refTime":"2026-05-10T21:00:00:Z","depth":0,"parameterNumber":2,"parameterNumberName":"U-component_of_WINDS"},"data":[0,0,0,0.0614,0.0613,0.0608,0.0608,0.0591,0.0591,0,0,0,0,0,0,0,0,0,0,0,0.0611,0.061,0.0614,0.0613,0.0608,0.0608,0.0591,0.0591,0,0,0,0,0,0,0,0,0,0,0,0.0611,0.061,0.061,0.0613,0.0608,0.0608,0.0591,0.0599,0,0,0,0,0,0,0,0,0,0,0.0606,0.0598,0.0611,0.061,0.0613,0.0608,0.0608,0.0599,0.0598,0.059,0,0.0582,0,0.0586,0.0589,0.0589,0,0,0,0.0617,0.0599,0.0602,0.061,0.0613,0.0608,0.0611,0.0599,0.0598,0.0588,0.0582,0.0582,0.0586,0.0589,0.0589,0.0532,0.0531,0,0,0.0617,0.0607,0.0603,0.0601,0.0603,0.0612,0.0611,0.0598,0.059,0.0582,0.0581,0.0586,0.0589,0.0589,0.0532,0.0532,0,0,0,0.0616,0.0607,0.061,0.0602,0.0601,0.0611,0.0611,0.0591,0.0593,0.0581,0.0586,0.0589,0.0589,0.0533,0.0532,0.0501,0,0,0,0.0616,0.0606,0.061,0.0604,0.0601,0.0596,0.0604,0.0594,0.0592,0.0586,0.0589,0.0588,0.0533,0.0532,0.0503,0.0487,0,0,0,0.0613,0.0606,0.0604,0.0604,0.0601,0.0597,0.0598,0.0594,0.0595,0.0589,0.0588,0.0533,0.0532,0.0504,0.049,0.0468,0,0,0,0.0606,0.0576,0.0603,0.0572,0.0601,0.0578,0.0598,0.0582,0.0573,0.0589,0.0533,0.0532,0.0505,0.0492,0.047,0.0447,0.0437,0,0,0.0563,0.0571,0.0553,0.0577,0.0547,0.058,0.0544,0.0546,0.0555,0.0538,0.0537,0.0502,0.049,0.0468,0.0386,0.0378,0,0,0,0.0536,0.0523,0.0517,0.0509,0.051,0.0509,0.0517,0.0517,0.0504,0.0545,0.0489,0.0482,0.047,0.0459,0.0452,0.0442,0.0527,0.0527,0.0527,0.0461,0.0473,0.0444,0.0455,0.0447,0.0455,0.0449,0.0451,0.0466,0.0452,0.0447,0.0396,0.0383,0.0378,0.0367,0.0438,0.0437,0.0437,0.0437,0.0398,0.0381,0.0401,0.0381,0.0393,0.0376,0.0382,0.0393,0.0377,0.0401,0.0391,0.0415,0.0369,0.036,0.0435,0.0435,0.0436,0.0436,0.0436,0.0349,0.0343,0.0344,0.0332,0.0321,0.0334,0.0317,0.033,0.0342,0.0332,0.0326,0.0327,0.0328,0.0328,0.0328,0.0328,0.0328,0.0328,0.0328,0.0297,0.0299,0.0284,0.0282,0.0278,0.0273,0.028,0.0276,0.0274,0.0284,0.0284,0.0299,0.0363,0.0378,0.0325,0.0325,0.0326,0.0326,0.0326,0.0226,0.0244,0.0221,0.0217,0.0214,0.0201,0.0218,0.0207,0.0205,0.0196,0.0214,0.0259,0.0268,0.0274,0.0286,0.0212,0.0212,0.0212,0.0212,0.0184,0.019,0.0168,0.016,0.0153,0.0165,0.0137,0.0141,0.0149,0.0148,0.0161,0.0178,0.0184,0.0189,0.0196,0.0208,0.0116,0.0116,0.0116,0.014,0.0146,0.012,0.0129,0.0127,0.0125,0.0098,0.0086,0.0098,0.0113,0.0147,0.0151,0.018,0.0189,0.0203,0.0214,0.0236,0,0]},{"header":{"parameterUnit":"m.s-1","parameterCategory":1,"la1":30.2992,"la2":30.254,"lo1":-89.0895,"lo2":-89.0443,"dy":0.0025,"dx":0.0025,"nx":19,"ny":19,"refTime":"2026-05-10T21:00:00:Z","depth":0,"parameterNumber":3,"parameterNumberName":"V-component_of_WINDS"},"data":[0,0,0,0.3728,0.3728,0.3735,0.3735,0.3756,0.3756,0,0,0,0,0,0,0,0,0,0,0,0.3733,0.3733,0.3728,0.3728,0.3735,0.3735,0.3756,0.3756,0,0,0,0,0,0,0,0,0,0,0,0.3733,0.3733,0.3734,0.3728,0.3735,0.3735,0.3755,0.3746,0,0,0,0,0,0,0,0,0,0,0.3738,0.3749,0.3733,0.3734,0.3729,0.3735,0.3735,0.3746,0.3747,0.3757,0,0.3769,0,0.3763,0.3758,0.3758,0,0,0,0.3723,0.3748,0.3743,0.3734,0.3729,0.3735,0.3731,0.3746,0.3748,0.3759,0.3769,0.3769,0.3763,0.3758,0.3758,0.3838,0.3839,0,0,0.3723,0.3738,0.3743,0.3745,0.3744,0.3731,0.3731,0.3747,0.3758,0.3769,0.377,0.3763,0.3758,0.3759,0.3837,0.3838,0,0,0,0.3725,0.3738,0.3733,0.3744,0.3745,0.3731,0.3731,0.3758,0.3755,0.377,0.3764,0.3759,0.3759,0.3837,0.3838,0.3884,0,0,0,0.3725,0.3739,0.3733,0.3742,0.3745,0.3751,0.3742,0.3754,0.3755,0.3764,0.3759,0.3759,0.3836,0.3837,0.3881,0.3904,0,0,0,0.373,0.374,0.3743,0.3743,0.3746,0.3751,0.3748,0.3754,0.3752,0.3758,0.3759,0.3836,0.3837,0.3879,0.3899,0.393,0,0,0,0.374,0.3783,0.3744,0.379,0.3747,0.3779,0.3748,0.3771,0.3782,0.3759,0.3836,0.3838,0.3878,0.3897,0.3928,0.396,0.3974,0,0,0.3803,0.3791,0.3817,0.3782,0.3825,0.3776,0.3826,0.3822,0.3808,0.3829,0.3831,0.3882,0.3899,0.393,0.4047,0.4059,0,0,0,0.3842,0.3861,0.3869,0.388,0.3878,0.3879,0.3865,0.3864,0.3881,0.3822,0.39,0.391,0.3927,0.3942,0.3952,0.3966,0.3845,0.3845,0.3844,0.3953,0.3934,0.3976,0.3958,0.3969,0.3955,0.3963,0.3959,0.3935,0.3954,0.3961,0.4034,0.4052,0.4059,0.4075,0.3975,0.3975,0.3975,0.3975,0.4044,0.4069,0.4037,0.4067,0.4047,0.4071,0.4059,0.4042,0.4063,0.4028,0.4042,0.4007,0.4073,0.4085,0.3978,0.3978,0.3977,0.3977,0.3977,0.4116,0.4124,0.4122,0.4137,0.4152,0.4131,0.4153,0.4133,0.4114,0.4129,0.4134,0.4133,0.4132,0.4132,0.4133,0.4133,0.4133,0.4133,0.4133,0.4192,0.4188,0.4208,0.421,0.4216,0.422,0.4207,0.4212,0.4212,0.4196,0.4196,0.4172,0.4082,0.4061,0.4137,0.4137,0.4136,0.4136,0.4136,0.4294,0.4268,0.43,0.4306,0.4307,0.4323,0.4297,0.4309,0.431,0.4322,0.4294,0.423,0.4217,0.4209,0.4192,0.4297,0.4297,0.4297,0.4297,0.4356,0.4347,0.4376,0.4386,0.4394,0.4375,0.4412,0.4403,0.4388,0.4388,0.437,0.4344,0.4337,0.4328,0.4317,0.4301,0.4432,0.4432,0.4432,0.4418,0.441,0.4446,0.4432,0.4431,0.4432,0.4467,0.4481,0.4459,0.4437,0.4388,0.4382,0.4341,0.4328,0.4306,0.429,0.4259,0,0]}]]